STARLINK-34831, 65345

Orbit data source: Space-Track

STARLINK-34831, 65345 is a payload satellite owned by SpaceX/Seattle (US) in LEO that was launched on Wed, 27 Aug 2025 UTC via an FALCON 9 launch vehicle from the Air Force Eastern Test Range (AFETR). Payload-class satellites include a variety of spacecraft equipped with specific instruments for various scientific and technological missions. These include communications satellites like Starlink; space stations such as the ISS; scientific satellites like the Hubble; Earth observation satellites from companies like Planet Labs, Umbra, and HawkEye 360; GPS; miniature CubeSats for education and research; and military/defense satellites.

Loading next visibility...
Identifier
65345, 2025-189Y
Orbit
LEO
Country
Flag of USUS
Related business
Manufacturer
SpaceX/Seattle
Mission
Operational Commercial Communications
Bus & Motor
STARLINK V2MO, Unknown motor
Mass
575 kg wet, ~530 kg dry
Launch date (UTC)
2025-08-27 (10 months ago)
Launch vehicle
FALCON 9
Launch site
Air Force Eastern Test Range (AFETR)
Object type
Payload
Rocket body
Debris
Shape & HBR
Box + 2 Pan, 17.7 m
Radar Cross Section
36.964 m², Large (>1 m²)

Expand to show TLE details & history
Last TLE update: 2 days ago

TLE from 2 days ago
0 STARLINK-34831
1 65345U 25189Y   26170.06916074  .00017003  00000-0  55818-3 0  9998
2 65345  53.1598  95.4788 0001270  89.9951 270.1196 15.31714900 46645
Epoch: 2026-06-19T01:39Z
TLE epoch observation values (Epoch: 2026-06-19T01:39:35.487Z)
Latitude
-0.00004°
Longitude
163.27748°
Altitude
471.594 km
Speed
7.631 km/s
True Right ascension
06h 21m 54s
True Declination
0° 00' 00"
Sunlit
Object was in daylight at epoch
Visualization orbit readout
Latitude
Unknown
Longitude
Unknown
Altitude
Unknown
Speed
Unknown
Apparent Right ascension
Unknown
Apparent Declination
Unknown
Sunlit
N/A
Visualization observer readout
Local Sidereal Time
08:32:33
Azimuth
Unknown
Elevation
Unknown
Doppler factor
Unknown
Orbital elements
Apogee altitude
471.822 km
Perigee altitude
470.082 km
Semi-major axis
6,849.089 km
Eccentricity
0.00013
Inclination
53.1598°
RAAN
95.4788°
Arg. of periapsis
89.9951°
True anomaly
270.10505°
Mean anomaly
270.1196°
Eccentric anomaly
270.11232°
Mean motion
3.82908 °/min
Orbital period
94.02 mins
BSTAR
0.00055818
Loading maneuver chart data...
Computing Atmospheric mass density...
Loading historical data...
Loading historical data...
Loading historical data...
Loading historical data...
Loading historical data...
Loading historical data...
Loading historical data...

Documentation

Showing up to 5 results
|